星链-4317 (STARLINK-4317 )

导读

STARLINK-4317是美国太空探索技术公司(SpaceX)星链互联网卫星星座中的一员,于2022年7月11日发射升空,属星链Group 3批次卫星,依托猎鹰9号火箭入轨,运行在近地轨道,主要为全球提供低延迟高速卫星互联网服务,属于星链星座大规模组网部署中的一颗卫星,推进了星链全球覆盖的进程。

基本信息
目录编号:
53058
目录名称:
STARLINK-4317
国际标识:
2022-077R
轨道中心:
EARTH
卫星名称:
星链-4317
卫星全名:
星链-4317 (STARLINK-4317 )
卫星状态:
在轨 (已飞行1437 天)
发射日期:
2022-07-11 UTC
国别 :
美国 (US)
星等 :
--
轨道信息
数据来源 国际轨道数据
星历时间: 2026-06-17T09:31:25+0800
10小时前
查看轨道信息
半长轴: 6927.625km
偏心率: 0.0001062
轨道倾角: 97.351°
近地点辐角 17.915°
升交点赤经 347.127°
平近点角 342.211°
近地点: 548.752km
远地点: 550.224km
周期: 95.639分钟
每日圈数: 15.056576
详细信息
固有亮度:
5
最大亮度:
2.5
卫星平台:
Starlink v1.5
覆盖范围:
全球
运营商:
太空探索技术公司
运营商所在国:
美国
制造商(研发单位):
太空探索技术公司
制造商所在国:
美国
使用方式:
暂无
卫星简介
星链(Starlink)计划是由太空探索技术公司(SpaceX)提出的一个巨型低轨卫星互联网星座项目,计划在2019年至2024年间在太空搭建由约1.2万颗卫星组成的“星链”网络,其中1584颗将部署在地球上空550千米处的近地轨道,并从2020年开始工作。该卫星仍在工作。
2D轨道图
3D轨道图
轨道高度分析图
轨道倾角分析图
轨道综合分析图
查看轨道综合分析图